Theta_e
310 309 309 309 309 311 311 311 312 312 312 313 312 312 312 312 312 312 313 311 312 313 315 322 324 324 328 328 327 326 328 334 341 345 346 348 348 347 347 346 346 344 343 344
310 310 311 311 312 313 313 313 312 311 312 313 311 311 312 312 312 312 311 312 314 315 315 323 326 328 328 327 326 327 326 327 327 340 347 346 345 345 346 346 345 343 348 348
310 312 313 313 313 313 313 312 312 312 313 312 312 312 312 312 313 312 313 313 313 313 314 321 324 324 326 325 325 325 326 326 325 326 344 348 345 343 341 344 344 343 340 342
310 312 313 313 313 313 313 318 317 315 313 312 312 313 312 312 312 313 312 310 310 312 313 318 322 321 325 325 325 323 322 321 323 324 327 343 346 345 343 343 339 336 341 340
313 312 312 313 313 318 318 318 318 317 314 311 312 311 312 312 313 313 311 311 311 311 311 316 319 320 323 324 322 322 322 322 321 320 320 327 332 336 341 344 341 342 339 334
312 312 312 313 317 318 318 318 316 316 309 313 312 311 313 312 312 313 314 316 315 314 311 314 318 320 322 323 322 323 323 323 322 321 320 321 328 331 334 336 338 341 340 341
313 313 313 318 319 317 316 316 320 319 319 318 314 312 312 312 312 314 314 315 314 315 311 317 319 316 317 319 323 323 323 323 324 325 325 325 325 325 325 328 331 332 335 337
315 317 316 319 318 318 318 316 315 321 319 317 318 319 315 314 314 314 316 314 312 313 314 317 316 316 315 316 319 321 320 320 319 322 323 324 325 327 327 329 328 327 326 325
315 317 316 317 317 316 320 321 318 321 320 322 319 318 316 315 315 317 316 316 314 310 314 314 314 314 313 315 317 317 318 319 320 322 323 323 324 326 326 326 327 327 327 330
315 315 316 317 317 316 317 316 318 318 315 321 320 321 318 317 316 318 316 314 315 313 313 312 312 313 315 316 317 317 317 319 320 322 323 324 324 325 325 326 327 328 328 329
314 315 316 314 315 314 314 316 317 316 315 314 319 317 318 318 317 317 317 316 314 314 311 311 310 313 316 317 317 317 318 320 321 322 320 320 321 323 323 324 328 331 329 331
315 314 316 315 313 314 316 316 315 315 319 322 320 319 315 315 316 315 315 316 315 315 314 313 312 309 311 315 317 317 318 319 320 319 319 319 320 320 320 321 321 322 323 325
315 313 311 310 309 311 314 316 317 316 313 315 312 313 312 313 312 313 314 315 316 316 314 313 313 313 312 311 314 317 318 319 319 319 319 319 320 320 320 319 321 321 318 317
311 309 309 311 310 308 313 315 315 316 312 313 316 315 313 314 314 315 313 312 314 316 317 316 315 313 314 313 313 314 317 319 319 317 317 320 319 317 317 317 317 317 316 315
308 310 310 310 312 313 313 312 312 313 314 315 313 313 316 316 314 314 313 314 313 314 314 315 317 314 315 316 316 316 315 314 315 316 316 316 316 316 317 316 315 315 315 315
306 309 311 312 312 311 313 312 311 311 312 313 315 316 315 315 313 314 314 316 317 316 317 317 317 317 316 315 315 316 315 315 315 314 314 315 316 316 316 315 315 315 314 314
307 307 309 311 312 312 313 314 317 317 317 316 316 316 315 315 316 315 314 315 315 315 316 316 315 315 315 314 315 316 314 314 314 313 314 314 315 315 314 314 314 314 314 314
306 307 306 310 310 315 311 317 318 318 319 317 316 315 315 315 314 313 315 314 314 314 314 313 313 313 312 314 315 314 313 313 313 314 313 313 314 314 314 313 313 312 312 312
305 305 307 307 305 311 314 318 317 316 318 314 313 313 312 311 311 311 314 312 310 309 309 310 311 311 310 310 310 311 312 312 312 312 312 312 312 312 312 311 311 311 311 310
312 309 309 306 314 313 317 315 312 313 318 312 311 309 309 307 310 309 308 308 308 307 307 307 308 307 307 307 307 308 309 310 311 312 312 312 312 312 311 311 310 310 310 310
317 316 316 312 311 312 314 313 311 315 312 311 309 308 307 307 307 307 307 307 306 306 307 307 307 307 307 306 306 305 306 307 310 310 311 311 311 310 310 310 310 310 310 310
312 316 317 316 317 318 310 309 311 310 307 307 306 306 306 307 306 306 307 305 305 304 304 304 305 305 306 305 305 305 305 306 307 309 310 310 310 310 310 310 309 309 309 308
315 315 314 312 307 309 308 307 307 305 306 305 305 305 306 307 307 307 306 305 303 303 303 303 303 305 304 304 306 306 306 306 306 307 307 308 308 309 309 309 309 310 310 309
312 310 309 306 310 308 307 306 306 306 306 305 306 306 306 303 302 303 301 301 301 302 302 302 304 303 303 303 305 305 306 307 308 308 309 309 308 309 309 310 310 310 311 313
309 308 307 306 306 306 307 306 306 305 306 306 305 305 305 303 303 301 300 300 301 301 301 301 302 302 302 303 305 304 305 306 306 307 308 309 310 310 310 310 311 312 313 314
308 308 310 309 306 306 306 305 305 306 306 306 305 304 303 302 303 302 300 299 300 300 300 300 301 301 302 302 303 303 304 306 307 306 307 308 310 311 312 312 313 314 314 315
Wind_Speed
4 2 6 12 10 13 8 12 16 16 9 3 6 8 13 8 8 15 16 9 9 9 10 22 21 27 25 24 23 21 21 21 20 21 18 20 23 26 30 27 33 38 36 38
4 6 14 10 11 11 13 16 16 9 6 4 9 11 15 9 8 8 9 8 8 4 7 6 22 29 31 26 20 18 18 16 13 15 19 17 18 23 23 31 29 20 19 32
8 11 10 10 12 13 11 7 7 11 6 4 6 10 11 15 6 9 8 8 6 10 10 8 12 23 28 27 24 20 15 13 9 7 10 13 15 17 17 26 27 31 26 27
8 13 11 10 7 4 5 6 13 13 7 11 6 13 8 8 8 8 8 8 8 8 7 8 14 15 27 32 24 20 17 14 11 9 7 8 13 16 23 22 24 23 22 19
12 6 8 7 10 1 6 3 4 7 12 4 6 2 11 4 10 10 10 9 9 10 9 15 16 22 24 27 22 19 16 13 11 10 10 10 11 16 20 18 25 27 31 32
12 7 6 9 2 5 3 1 3 2 2 7 14 5 14 10 11 6 6 12 12 11 10 12 16 25 27 27 23 22 18 13 8 7 8 12 13 13 14 16 21 28 30 30
10 11 10 2 1 5 9 6 5 4 3 13 12 7 16 11 9 13 14 10 15 17 8 16 18 14 22 29 28 25 20 15 12 11 9 10 13 14 18 19 18 19 18 18
5 4 1 3 4 4 3 5 4 6 4 9 6 8 18 5 10 14 7 7 10 16 14 18 17 16 23 27 30 27 22 16 14 12 11 12 13 13 14 16 18 18 18 17
1 2 3 1 5 6 3 5 4 3 3 4 5 8 15 19 13 8 8 7 15 7 9 15 12 15 18 26 30 25 21 17 17 16 14 13 13 14 15 16 16 15 15 14
2 4 3 3 3 3 3 2 1 1 3 6 5 5 8 6 7 8 8 8 13 11 5 6 7 9 21 29 27 24 23 22 24 23 21 17 16 16 15 14 14 14 14 12
4 4 4 2 1 2 1 0 3 1 3 3 5 5 5 2 5 3 3 5 6 9 7 2 6 11 23 25 24 26 29 30 32 28 22 19 20 17 13 11 11 10 9 8
4 5 3 7 6 4 3 4 5 3 3 4 1 7 14 9 9 6 2 6 4 1 3 4 8 8 9 20 27 32 36 35 35 27 25 25 23 21 18 14 9 8 8 8
6 1 1 7 5 3 3 5 6 2 2 6 3 5 4 8 11 12 7 7 5 7 7 1 5 6 7 10 26 31 35 35 30 27 24 22 25 18 12 11 8 7 9 12
5 3 7 6 7 5 5 6 9 8 4 4 8 15 13 12 12 12 12 5 10 16 18 18 3 5 8 6 4 12 23 26 27 22 20 19 19 17 16 13 11 11 11 14
3 4 4 6 8 10 12 12 12 10 14 8 15 10 2 7 7 6 7 10 6 4 4 6 1 7 5 9 12 12 8 7 19 24 23 22 20 19 18 17 15 14 16 19
3 3 2 4 6 7 11 13 16 17 17 13 7 5 7 7 7 6 7 7 5 4 4 3 3 5 1 3 7 4 1 5 6 9 13 14 15 14 13 13 13 14 17 20
2 2 3 4 3 7 7 3 6 7 7 4 3 6 5 5 6 7 5 4 5 5 4 4 4 5 7 8 3 6 11 11 12 13 12 11 12 14 15 16 17 19 20 21
5 2 3 4 3 2 4 7 3 7 9 6 4 3 7 9 6 9 5 3 4 6 6 7 5 8 11 11 12 15 19 19 18 21 22 18 18 19 18 19 20 22 24 27
8 4 1 1 2 6 4 7 7 7 4 6 5 7 7 10 13 9 6 1 6 8 9 9 17 19 13 12 17 20 22 22 23 26 28 28 27 24 23 26 29 32 32 30
5 4 4 2 3 5 0 7 12 8 6 5 4 7 9 9 10 11 5 13 16 15 15 13 17 17 20 21 18 16 21 23 23 26 31 33 32 29 29 29 28 30 32 34
1 1 4 4 4 6 4 9 12 2 5 12 11 11 10 13 12 15 15 15 13 17 22 21 22 23 25 25 25 29 28 26 23 27 29 30 29 30 31 31 32 32 31 31
4 2 2 2 3 5 4 2 1 3 9 9 13 14 18 18 18 18 18 14 16 19 22 29 25 30 28 27 28 29 28 30 29 28 27 27 28 29 26 28 28 30 30 30
2 2 2 5 5 2 2 8 2 4 9 14 16 18 19 21 21 19 18 23 21 22 22 25 29 23 25 27 29 24 28 29 29 28 28 25 26 28 28 26 26 26 25 25
1 2 1 5 0 3 14 5 5 11 14 16 17 20 16 21 23 22 20 21 21 17 18 25 24 17 22 28 30 30 29 30 28 25 21 21 23 24 26 26 26 26 25 24
2 3 3 5 7 13 8 10 14 18 19 19 19 18 19 23 24 20 21 19 18 17 21 23 20 17 22 26 25 23 27 26 23 23 23 24 24 24 23 25 27 27 30 29
2 2 2 4 9 9 16 16 20 21 21 16 20 18 20 22 25 21 20 16 19 15 22 19 23 24 25 26 27 27 26 25 21 20 22 23 21 21 20 20 24 30 36 32
Wind_Direction
275 75 242 240 220 237 246 260 265 274 263 274 246 263 285 274 286 264 238 215 251 243 212 195 191 191 174 167 162 162 170 190 203 214 218 213 208 199 194 196 222 228 219 224
352 250 249 242 253 242 249 252 260 263 253 252 289 278 284 285 261 234 223 216 216 214 165 182 152 160 166 168 170 162 163 164 176 201 218 226 232 232 223 201 194 218 213 229
206 239 257 252 256 260 260 241 262 263 265 271 328 294 292 291 256 256 225 225 205 197 198 190 165 168 167 169 173 171 167 167 173 182 211 226 233 236 246 233 217 216 228 231
236 252 255 281 287 284 294 352 7 327 299 277 166 271 276 273 295 286 280 295 257 224 191 183 177 175 171 174 172 172 174 178 188 202 215 224 217 221 238 249 232 220 213 224
233 225 251 270 269 84 253 347 2 344 326 290 249 204 268 330 293 279 287 297 290 286 227 187 190 179 173 164 166 166 169 173 185 204 225 238 251 256 254 251 249 237 230 227
245 246 201 245 269 185 275 336 358 7 61 277 294 207 268 254 258 266 263 287 287 282 229 194 175 155 162 163 166 169 170 171 185 205 222 237 245 255 261 246 246 241 236 223
265 265 266 105 32 12 48 46 333 331 290 261 260 262 250 270 264 243 260 298 296 293 193 166 158 161 158 163 167 170 173 182 188 199 224 239 242 245 252 254 247 246 241 227
201 303 76 134 124 150 124 140 180 242 254 283 10 252 255 284 292 263 257 263 320 278 171 162 164 159 165 169 170 173 181 189 194 199 224 232 236 239 244 247 248 250 253 252
44 237 6 288 160 138 144 179 172 222 325 287 234 276 276 273 283 264 233 35 342 346 150 149 164 174 173 173 177 180 185 192 198 201 213 223 233 233 241 248 249 254 256 257
264 309 309 58 96 260 152 153 208 286 265 258 268 261 254 359 355 13 352 35 27 339 105 136 159 178 180 180 183 187 189 201 207 212 220 226 231 240 249 254 261 264 268 276
158 157 259 48 273 173 247 96 30 204 184 225 268 267 325 323 280 73 32 9 35 16 332 226 174 180 179 187 188 196 200 204 206 205 212 221 227 228 232 239 253 261 271 288
188 154 201 225 252 189 141 166 162 156 260 230 232 241 258 246 289 299 338 159 206 145 62 30 10 336 198 191 195 199 201 204 209 213 217 223 229 236 231 234 233 253 282 306
183 189 26 336 352 328 223 195 184 153 82 213 173 263 279 314 302 284 228 217 187 239 293 321 8 10 355 266 193 202 206 211 215 215 225 232 236 234 219 225 228 252 282 297
113 157 168 215 222 196 250 243 201 181 179 223 222 273 300 318 336 330 311 277 212 188 211 253 29 1 351 10 328 227 205 212 214 202 193 188 193 208 216 225 237 253 271 290
83 211 222 237 251 271 282 281 276 234 240 224 270 253 7 336 292 327 348 327 288 16 343 278 199 305 48 4 66 54 34 288 201 196 204 205 205 204 204 216 232 252 272 284
6 275 319 235 250 280 292 289 279 270 265 243 245 267 22 302 292 322 342 325 6 32 63 64 336 268 294 328 349 49 309 325 356 266 219 202 192 199 211 224 240 254 263 272
211 155 10 270 310 308 299 307 280 291 56 344 45 6 327 277 309 311 330 344 347 354 297 266 270 276 252 244 282 304 304 296 274 262 254 238 236 238 243 251 251 256 260 267
182 163 157 268 2 261 214 12 310 351 95 83 56 303 287 298 292 290 229 213 307 312 304 301 267 268 266 248 245 244 245 260 260 252 255 246 238 238 242 251 259 266 268 270
190 139 256 161 195 287 325 9 337 335 275 36 13 351 356 341 312 284 220 323 302 296 283 273 277 279 277 291 293 289 278 267 251 241 240 242 242 241 248 257 266 271 271 268
78 110 154 118 203 242 97 332 318 299 249 35 353 327 320 331 304 298 291 319 308 296 282 283 285 291 298 296 295 280 269 262 254 247 240 246 244 239 245 253 258 263 266 264
338 332 213 213 225 283 355 344 311 227 289 339 340 306 293 295 277 284 286 283 285 287 287 286 281 280 277 283 285 279 274 265 261 250 247 243 239 243 251 255 256 255 255 260
169 226 228 230 221 247 27 339 43 292 321 305 305 300 294 290 286 281 274 277 286 287 285 278 279 274 269 272 272 267 264 269 259 251 248 247 248 246 243 247 253 254 250 249
78 202 233 195 230 202 166 268 249 308 285 298 300 297 295 294 292 289 293 289 286 280 280 274 271 264 277 267 262 258 266 267 260 254 253 249 252 242 238 242 246 245 239 237
75 11 95 12 277 340 319 288 299 311 303 302 298 301 305 312 298 287 293 290 278 279 272 277 267 270 269 264 257 252 258 259 252 239 239 241 234 239 242 239 239 238 239 239
229 10 336 267 292 322 276 314 308 303 299 293 296 301 301 302 290 286 295 296 280 286 270 277 270 265 264 264 254 262 264 264 265 261 254 250 240 241 241 235 234 233 237 233
198 230 258 269 302 282 282 301 302 300 299 292 297 295 302 301 297 282 292 285 287 282 282 275 268 265 263 263 261 261 259 250 247 258 257 252 246 244 238 243 252 248 242 245